[[{"header":{"parameterUnit":"m.s-1","parameterCategory":1,"la1":30.2991,"la2":30.254,"lo1":-89.0895,"lo2":-89.0444,"dy":0.0017,"dx":0.0017,"nx":28,"ny":28,"refTime":"2025-04-18T09:00:00:Z","depth":0,"parameterNumber":2,"parameterNumberName":"U-component_of_WINDS"},"data":[0,0,0,0,0,0,0,0,0,0,0,0,0,0,0,0,0,0,0,0,0,0,0,0,0,0,0,0,0,0,0,0,0,0,0,0,0,0,0,0,0,0,0,0,0,0,0,0,0,0,0,0,0,0,0,0,0,0,-3.4349,-3.4351,0,-3.4465,-3.4467,-3.4468,-3.4493,-3.4493,-3.4492,-3.4491,-3.4612,-3.4616,-3.462,0,0,0,0,0,0,0,0,0,0,0,0,0,-3.4153,-3.4156,-3.4349,-3.4351,-3.4352,-3.4465,-3.4467,-3.4468,-3.4494,-3.4493,-3.4492,-3.4491,-3.4611,-3.4616,-3.4621,0,0,0,0,0,0,0,0,0,0,0,0,0,-3.4251,-3.4157,-3.4349,-3.4378,-3.4382,-3.4465,-3.4467,-3.4469,-3.4494,-3.4493,-3.4491,-3.449,-3.4609,-3.4615,-3.4621,-3.4684,0,0,-3.464,-3.4642,0,0,0,0,0,0,0,0,-3.4245,-3.4258,-3.4372,-3.4376,-3.4381,-3.4464,-3.4442,-3.4541,-3.4494,-3.4451,-3.4491,-3.4489,-3.4564,-3.4574,-3.4598,-3.469,-3.4695,-3.464,-3.4644,-3.4647,-3.4648,0,0,0,0,0,0,0,-3.4238,-3.4253,-3.4395,-3.4374,-3.4379,-3.4387,-3.4399,-3.4461,-3.4514,-3.4455,-3.4457,-3.447,-3.4566,-3.4593,-3.4601,-3.4697,-3.464,-3.4645,-3.4649,-3.4652,-3.4847,-3.4848,0,0,0,0,0,0,-3.4226,-3.4247,-3.4392,-3.4399,-3.4308,-3.4391,-3.4405,-3.4438,-3.4513,-3.4523,-3.4471,-3.4471,-3.4583,-3.4594,-3.4606,-3.4684,-3.4646,-3.4652,-3.4656,-3.4845,-3.4847,-3.4849,0,0,0,0,0,0,-3.4221,-3.4238,-3.4387,-3.4324,-3.4343,-3.4396,-3.4433,-3.4441,-3.4468,-3.4525,-3.4535,-3.4488,-3.4582,-3.4597,-3.4665,-3.4689,-3.4655,-3.466,-3.4843,-3.4846,-3.4848,-3.4842,0,0,0,0,0,0,-3.4216,-3.4237,-3.426,-3.4324,-3.4346,-3.4442,-3.4435,-3.4444,-3.4478,-3.4479,-3.4544,-3.4553,-3.4582,-3.4655,-3.467,-3.4697,-3.4665,-3.4841,-3.4844,-3.4847,-3.484,-3.4844,-3.4847,0,0,0,0,0,-3.4209,-3.4254,-3.4261,-3.4278,-3.4376,-3.4444,-3.4457,-3.4488,-3.448,-3.4504,-3.4541,-3.4551,-3.4684,-3.4662,-3.4679,-3.4708,-3.484,-3.4844,-3.4847,-3.4839,-3.4843,-3.4847,0,0,0,0,0,0,-3.4192,-3.4263,-3.4271,-3.4339,-3.4385,-3.4448,-3.4479,-3.4492,-3.4542,-3.4541,-3.4579,-3.4594,-3.4659,-3.469,-3.4664,-3.4773,-3.4762,-3.4769,-3.475,-3.4754,-3.4758,-3.4748,-3.467,0,0,0,0,0,-3.4196,-3.4244,-3.4304,-3.4357,-3.438,-3.4426,-3.4456,-3.4477,-3.4527,-3.4547,-3.4589,-3.4638,-3.4691,-3.4724,-3.4776,-3.4845,-3.486,-3.4874,-3.4877,-3.488,-3.4885,-3.4925,-3.4931,-3.486,-3.486,-3.486,0,0,-3.4205,-3.425,-3.4278,-3.4355,-3.4393,-3.4443,-3.4442,-3.4494,-3.4532,-3.4555,-3.462,-3.4653,-3.4711,-3.4779,-3.4812,-3.4808,-3.4908,-3.4884,-3.4886,-3.489,-3.4929,-3.4936,-3.4942,-3.4863,-3.4862,-3.4862,0,0,-3.4247,-3.4285,-3.4334,-3.4373,-3.4431,-3.4461,-3.4473,-3.4535,-3.4557,-3.4624,-3.4642,-3.4688,-3.4778,-3.4818,-3.4851,-3.491,-3.4921,-3.4926,-3.4943,-3.4981,-3.4987,-3.4992,-3.5013,-3.502,-3.4931,-3.4931,-3.4931,0,-3.4251,-3.4325,-3.4358,-3.441,-3.4444,-3.4467,-3.4517,-3.4554,-3.4626,-3.4649,-3.4644,-3.4758,-3.4798,-3.4877,-3.4891,-3.4917,-3.4932,-3.4918,-3.4983,-3.4989,-3.4994,-3.5014,-3.5022,-3.4931,-3.4931,-3.4931,-3.4931,0,-3.4327,-3.4379,-3.4412,-3.448,-3.4518,-3.4569,-3.4611,-3.4646,-3.4664,-3.4695,-3.4764,-3.4813,-3.4875,-3.4896,-3.4914,-3.4978,-3.4973,-3.4975,-3.4964,-3.5,-3.502,-3.5028,-3.4931,-3.4931,-3.4931,-3.4931,0,0,-3.436,-3.4447,-3.4458,-3.449,-3.4556,-3.4598,-3.4651,-3.4711,-3.474,-3.479,-3.4836,-3.4912,-3.4915,-3.4951,-3.4975,-3.5009,-3.5052,-3.5006,-3.5008,-3.5013,-3.5126,-3.5124,-3.5132,-3.5061,-3.5063,-3.5064,-3.5121,0,-3.4409,-3.4503,-3.4535,-3.4613,-3.4661,-3.4685,-3.4731,-3.4778,-3.4809,-3.4856,-3.4892,-3.4945,-3.4944,-3.4966,-3.5001,-3.5039,-3.5076,-3.5036,-3.5104,-3.5106,-3.5088,-3.5143,-3.514,-3.5191,-3.5129,-3.5131,-3.5132,0,-3.4479,-3.4529,-3.4611,-3.4672,-3.4694,-3.4735,-3.4793,-3.4838,-3.4892,-3.4912,-3.4954,-3.4975,-3.5033,-3.502,-3.51,-3.5073,-3.5103,-3.5127,-3.513,-3.5136,-3.512,-3.515,-3.5209,-3.5216,-3.5144,-3.5143,-3.5142,0,-3.4494,-3.4582,-3.4643,-3.467,-3.4743,-3.4771,-3.4803,-3.4855,-3.489,-3.4942,-3.4965,-3.5024,-3.5056,-3.5101,-3.5138,-3.5125,-3.5216,-3.5205,-3.5235,-3.5234,-3.5252,-3.525,-3.5315,-3.5273,-3.5272,-3.5272,-3.5272,0,-3.4545,-3.4594,-3.4651,-3.4688,-3.4745,-3.4782,-3.4838,-3.4872,-3.4919,-3.4964,-3.4989,-3.5031,-3.5078,-3.5127,-3.5156,-3.5219,-3.5233,-3.5252,-3.5259,-3.5249,-3.5247,-3.5269,-3.5266,-3.5274,-3.5274,-3.5273,-3.5273,0,-3.4571,-3.461,-3.4678,-3.4742,-3.476,-3.4798,-3.4854,-3.4892,-3.4925,-3.4982,-3.4998,-3.505,-3.5109,-3.5151,-3.5227,-3.5247,-3.5314,-3.5321,-3.5295,-3.5299,-3.5325,-3.5322,-3.5406,-3.5419,-3.5368,-3.5369,-3.5369,0,-3.46,-3.4639,-3.4707,-3.4738,-3.477,-3.4821,-3.4857,-3.4896,-3.4932,-3.4997,-3.5028,-3.5088,-3.5138,-3.5232,-3.5277,-3.5336,-3.5345,-3.537,-3.5354,-3.5343,-3.5345,-3.5342,-3.5346,-3.5372,-3.5373,-3.5373,-3.5373,0,-3.4649,-3.4667,-3.4716,-3.4773,-3.4815,-3.4862,-3.4909,-3.4934,-3.4982,-3.5022,-3.5082,-3.5121,-3.5199,-3.5259,-3.5322,-3.5357,-3.5373,-3.5378,-3.5388,-3.5378,-3.5361,-3.537,-3.5301,-3.5376,-3.5376,-3.5375,-3.5375,-3.5375,-3.4677,-3.4713,-3.4766,-3.4821,-3.4861,-3.4905,-3.4944,-3.4982,-3.5032,-3.5097,-3.5118,-3.5181,-3.5236,-3.5322,-3.5358,-3.5408,-3.5407,-3.5421,-3.5425,-3.5428,-3.5427,-3.5354,-3.542,-3.542,-3.542,-3.542,-3.542,0,-3.4727,-3.4762,-3.4812,-3.4878,-3.4921,-3.4933,-3.4986,-3.5022,-3.5076,-3.5126,-3.5175,-3.5244,-3.5303,-3.5354,-3.5415,-3.5446,-3.5455,-3.5461,-3.5458,-3.5466,-3.5425,-3.541,-3.5452,-3.5452,-3.5452,-3.5452,-3.5452,-3.5452,-3.4757,-3.4818,-3.4843,-3.4924,-3.496,-3.502,-3.505,-3.5091,-3.5131,-3.5207,-3.5256,-3.5288,-3.5339,-3.5404,-3.5459,-3.5472,-3.5494,-3.5497,-3.5513,-3.5473,-3.5469,-3.5465,-3.5451,-3.5502,-3.5502,-3.555,-3.555,-3.555]},{"header":{"parameterUnit":"m.s-1","parameterCategory":1,"la1":30.2991,"la2":30.254,"lo1":-89.0895,"lo2":-89.0444,"dy":0.0017,"dx":0.0017,"nx":28,"ny":28,"refTime":"2025-04-18T09:00:00:Z","depth":0,"parameterNumber":3,"parameterNumberName":"V-component_of_WINDS"},"data":[0,0,0,0,0,0,0,0,0,0,0,0,0,0,0,0,0,0,0,0,0,0,0,0,0,0,0,0,0,0,0,0,0,0,0,0,0,0,0,0,0,0,0,0,0,0,0,0,0,0,0,0,0,0,0,0,0,0,6.1423,6.1424,0,6.1514,6.1515,6.1516,6.1522,6.1521,6.152,6.1519,6.1609,6.1612,6.1616,0,0,0,0,0,0,0,0,0,0,0,0,0,6.1251,6.1254,6.1423,6.1424,6.1425,6.1514,6.1515,6.1516,6.1522,6.1521,6.1519,6.1518,6.1608,6.1612,6.1616,0,0,0,0,0,0,0,0,0,0,0,0,0,6.1332,6.1255,6.1422,6.1438,6.1441,6.1514,6.1515,6.1517,6.1522,6.1521,6.1519,6.1518,6.1607,6.1612,6.1617,6.1679,0,0,6.1632,6.1634,0,0,0,0,0,0,0,0,6.1327,6.1338,6.1435,6.1437,6.144,6.1505,6.1488,6.1571,6.1523,6.1491,6.1519,6.1517,6.1576,6.1583,6.1604,6.1683,6.1687,6.1633,6.1636,6.1638,6.1639,0,0,0,0,0,0,0,6.1322,6.1334,6.1459,6.1436,6.144,6.144,6.145,6.1504,6.1541,6.1494,6.1494,6.1505,6.1577,6.1599,6.1606,6.1688,6.1632,6.1637,6.164,6.1642,6.1825,6.1827,0,0,0,0,0,0,6.1313,6.133,6.1456,6.1461,6.1379,6.1445,6.1456,6.1486,6.154,6.1547,6.1507,6.1505,6.1591,6.16,6.1609,6.1687,6.1638,6.1643,6.1645,6.1823,6.1825,6.1827,0,0,0,0,0,0,6.131,6.1325,6.1452,6.1396,6.1412,6.1449,6.1483,6.1488,6.151,6.155,6.1556,6.1522,6.159,6.1602,6.1662,6.169,6.1645,6.1649,6.1821,6.1824,6.1826,6.1842,0,0,0,0,0,0,6.1305,6.1323,6.1348,6.1396,6.1415,6.1504,6.1485,6.1491,6.1519,6.1519,6.1566,6.1573,6.159,6.1654,6.1667,6.1696,6.1653,6.1819,6.1822,6.1825,6.1839,6.1844,6.1849,0,0,0,0,0,6.1299,6.1347,6.1349,6.1364,6.1447,6.1506,6.1517,6.1536,6.1522,6.1546,6.1572,6.1571,6.1684,6.1661,6.1675,6.1706,6.1817,6.1821,6.1825,6.1836,6.1843,6.1849,0,0,0,0,0,0,6.13,6.1354,6.1356,6.1422,6.146,6.1507,6.1539,6.1542,6.1583,6.1581,6.1602,6.1613,6.1673,6.1695,6.1667,6.1769,6.1749,6.1756,6.1753,6.176,6.1765,6.1759,6.1658,0,0,0,0,0,6.1308,6.1352,6.1397,6.1451,6.147,6.1501,6.1527,6.1539,6.1578,6.1594,6.1623,6.1661,6.1705,6.1733,6.1776,6.1842,6.1853,6.187,6.1875,6.1879,6.1886,6.1923,6.1932,6.1841,6.1841,6.1841,0,0,6.1324,6.136,6.1386,6.1452,6.1482,6.1528,6.1514,6.1562,6.1596,6.16,6.166,6.1683,6.1726,6.179,6.1819,6.181,6.1913,6.1885,6.1888,6.1892,6.1928,6.1937,6.1945,6.1843,6.1843,6.1842,0,0,6.1379,6.1409,6.1459,6.149,6.1536,6.1557,6.1569,6.1616,6.1632,6.1692,6.1697,6.1737,6.1812,6.1843,6.1868,6.1935,6.1937,6.1948,6.1976,6.2013,6.202,6.2027,6.2052,6.206,6.1954,6.1954,6.1954,0,6.1394,6.1463,6.1483,6.1532,6.1561,6.1569,6.1619,6.1647,6.1705,6.1724,6.1714,6.1809,6.1838,6.191,6.1927,6.1947,6.1961,6.1943,6.2018,6.2024,6.2031,6.2055,6.2064,6.1955,6.1955,6.1955,6.1955,0,6.148,6.1527,6.1561,6.1619,6.1651,6.17,6.1728,6.1758,6.1767,6.1789,6.185,6.1886,6.1936,6.1954,6.1962,6.2027,6.2021,6.2013,6.1994,6.204,6.2063,6.2073,6.1957,6.1957,6.1956,6.1956,0,0,6.1537,6.1606,6.1618,6.1645,6.1697,6.1734,6.1783,6.1834,6.1861,6.19,6.1942,6.2006,6.2,6.2029,6.2041,6.2073,6.2126,6.2062,6.2064,6.2074,6.22,6.2206,6.2217,6.2126,6.2128,6.213,6.2197,0,6.1598,6.1688,6.1708,6.1785,6.183,6.1838,6.1881,6.1917,6.1939,6.198,6.2003,6.2049,6.2037,6.2055,6.2087,6.2112,6.2151,6.2108,6.2166,6.2168,6.2156,6.2229,6.2235,6.2297,6.2206,6.2208,6.2209,0,6.1682,6.1725,6.1806,6.1854,6.1874,6.1912,6.1961,6.2,6.2041,6.2055,6.2088,6.2097,6.2148,6.2126,6.2197,6.2167,6.2192,6.2208,6.2211,6.2218,6.2192,6.2239,6.2317,6.2327,6.2223,6.2222,6.2221,0,6.1717,6.1795,6.1855,6.1877,6.1934,6.1961,6.1985,6.2026,6.2055,6.2097,6.2117,6.2164,6.219,6.2226,6.2247,6.2228,6.2317,6.2296,6.233,6.233,6.2349,6.2348,6.2434,6.2363,6.2363,6.2363,6.2363,0,6.1784,6.1834,6.1872,6.1909,6.1965,6.1987,6.2042,6.2066,6.2102,6.2143,6.2152,6.2191,6.2216,6.2258,6.2275,6.2332,6.2343,6.2355,6.2359,6.2355,6.2354,6.2373,6.2369,6.2365,6.2365,6.2364,6.2364,0,6.1834,6.1861,6.1927,6.1975,6.1989,6.2028,6.207,6.2105,6.2127,6.2179,6.2193,6.2227,6.2277,6.2302,6.2363,6.2374,6.2439,6.244,6.2426,6.2428,6.2461,6.2458,6.2563,6.2578,6.2496,6.2497,6.2498,0,6.1875,6.1914,6.1968,6.1997,6.2022,6.2068,6.2099,6.2122,6.2154,6.2205,6.2235,6.2285,6.2327,6.2406,6.2436,6.2483,6.2486,6.2519,6.2493,6.2488,6.2488,6.2486,6.249,6.2524,6.2525,6.2526,6.2526,0,6.1947,6.1959,6.2003,6.2053,6.209,6.213,6.2169,6.2192,6.2221,6.2256,6.2308,6.234,6.2404,6.2454,6.2504,6.2528,6.2533,6.2534,6.2545,6.2542,6.2533,6.2539,6.244,6.2532,6.2531,6.2531,6.2531,6.253,6.1995,6.203,6.2074,6.2123,6.2156,6.2192,6.2229,6.2256,6.23,6.2355,6.2365,6.242,6.2461,6.2528,6.2555,6.2598,6.259,6.2605,6.261,6.2613,6.2616,6.2525,6.2607,6.2607,6.2606,6.2606,6.2606,0,6.2068,6.2097,6.2142,6.2197,6.2236,6.2238,6.2281,6.2314,6.2363,6.2401,6.2442,6.2502,6.2551,6.2585,6.2635,6.2663,6.2666,6.2675,6.2674,6.268,6.2619,6.2605,6.2672,6.2672,6.2672,6.2672,6.2672,6.2672,6.2111,6.2172,6.2189,6.2265,6.2293,6.2348,6.2373,6.2407,6.2438,6.2505,6.2547,6.2569,6.2605,6.2658,6.2703,6.2712,6.273,6.2739,6.2748,6.2691,6.2684,6.2677,6.2665,6.2743,6.2743,6.2806,6.2806,6.2807]}]]